Hourly Data Report for May 09, 2012

All times are specified in Local Standard Time (LST). Add 1 hour to adjust for Daylight Saving Time where and when it is observed.

SAULT STE MARIE A
ONTARIO

46°29'06.000" N
84°30'35.000" W
192.00 m
6057591
71260
YAM

Related Data

No related data is available for this station

Download Data

Hourly Data (May 2012)
Hourly Data Report for May 9, 2012
Temp Definition
°C
Dew Point Temp Definition
°C
Rel Hum Definition
%
Wind Dir Definition
10's deg

Wind Spd Definition
km/h
Visibility Definition
km
Stn Press Definition
kPa
Hmdx Definition


Wind Chill Definition


Weather Definition


TIME
00:00 4.4 4.8 103 30 19 10.0 98.68     Rain Showers,Fog
01:00 4.6 4.9 102 30 12 10.0 98.63     Cloudy
02:00 4.6 4.7 101 28 10 10.0 98.60     LegendNANA
03:00 4.6 4.9 102 30 12 10.0 98.60     LegendNANA
04:00 4.9 5.3 103 30 14 10.0 98.63     Cloudy
05:00 4.8 4.8 100 32 13 10.0 98.64     LegendNANA
06:00 4.8 4.8 100 30 13 10.0 98.70     LegendNANA
07:00 6.7 4.2 84 35 6 10.0 98.73     Mostly Cloudy
08:00 8.1 3.8 74 35 15 10.0 98.77     LegendNANA
09:00 8.8 3.0 67 33 9 10.0 98.76     LegendNANA
10:00 8.9 1.8 61 32 22 10.0 98.78     Mostly Cloudy
11:00 10.0 3.3 63 29 31 10.0 98.80     LegendNANA
12:00 10.7 2.6 57 30 30 10.0 98.79     LegendNANA
13:00 10.3 2.4 58 30 29 10.0 98.79     Mainly Clear
14:00 10.4 1.0 52 30 35 10.0 98.82     LegendNANA
15:00 9.9 1.6 56 30 38 10.0 98.82     LegendNANA
16:00 9.5 0.4 53 30 35 10.0 98.78     Mainly Clear
17:00 9.8 0.2 51 31 37 10.0 98.77     LegendNANA
18:00 9.0 1.2 58 31 37 10.0 98.79     LegendNANA
19:00 7.5 1.4 65 31 29 10.0 98.81     Mainly Clear
20:00 5.8 1.7 75 30 28 10.0 98.83     LegendNANA
21:00 5.1 2.1 81 30 21 10.0 98.87     LegendNANA
22:00 4.7 2.7 87 30 24 10.0 98.88     Clear
23:00 4.4 2.9 90 30 23 10.0 98.88     LegendNANA

Notes on Data Quality.

Legend

  • E = Estimated
  • M = Missing
  • NA = Not Available
Date modified: